Location: Libas
(9.8833°N, 125.9833°E)
Time: 20:29:45
(UTC+00:00)

GPS 2-18 Rocket1 - Pass Details

Date: 27 October 2020
Orbit: 458 x 514 km, 20.9° (Epoch: 26 November)

Event Time Altitude Azimuth Distance (km) Brightness Sun altitude
Exits shadow 20:23:20 28° 316° (NW) 896 3.9 -15.9°
Maximum altitude 20:24:13 32° 345° (NNW) 817 3.9 -15.7°
Drops below altitude 10° 20:27:32 10° 50° (NE) 1,591 6.2 -14.9°
Sets 20:29:51 0° 60° (ENE) 2,458 7.5 -14.3°
